Location: Unspecified
(22.6800°N, 112.2000°E)
Time: 19:10:36
(UTC+08:00)

Tianhe-1 - Visible Passes

Search period start: 25 June 2021 00:00
Search period end: 05 July 2021 00:00
Orbit: 375 x 385 km, 41.5° (Epoch: 25 June)

Date Brightness Start Highest point End Pass type
(mag) Time Alt. Az. Time Alt. Az. Time Alt. Az.
29 Jun 3.9 05:15:49 10° NNW 05:18:17 21° NNE 05:20:45 10° E visible
30 Jun 4.4 04:15:48 10° N 04:16:55 11° NNE 04:18:01 10° NE visible
30 Jun 3.3 20:41:46 10° SSW 20:42:24 15° SSW 20:42:24 15° SSW visible
01 Jul 2.5 04:49:40 10° NW 04:52:40 40° NE 04:55:39 10° ESE visible
01 Jul 2.9 21:17:11 10° WSW 21:19:20 30° WNW 21:19:20 30° WNW visible
02 Jul 3.8 03:49:20 12° NNW 03:51:20 19° NNE 03:53:41 10° E visible
02 Jul 1.9 05:25:14 10° WNW 05:28:03 31° SW 05:30:52 10° SSE visible
02 Jul 0.9 20:15:42 10° SW 20:18:47 90° WNW 20:21:53 10° NE visible
02 Jul 4.7 21:55:31 10° NNW 21:55:44 10° NNW 21:55:44 10° NNW visible
03 Jul 0.9 04:25:48 38° WNW 04:26:52 85° SW 04:29:59 10° SE visible
03 Jul 3.9 20:52:04 10° WNW 20:54:19 18° NNW 20:56:34 10° NNE visible
04 Jul 3.0 05:02:42 14° SSW 05:02:42 14° SSW 05:03:51 10° S visible
04 Jul 2.6 19:50:00 10° WSW 19:52:55 38° NW 19:55:50 10° NE visible
